Weather History for North Bend, OR

Change the Weather History Date:

Tuesday, November 20, 2012

  Actual Average Record
Temperature  
Mean Temperature 54 °F 48 °F  
Max Temperature 59 °F 54 °F 70 °F (1928)
Min Temperature 48 °F 42 °F 27 °F (1993)
Degree Days  
Heating Degree Days 11 17  
Month to date heating degree days 246 307  
Since 1 July heating degree days 1145 1273  
Cooling Degree Days 0 0  
Month to date cooling degree days 0 0  
Year to date cooling degree days 1 2  
Growing Degree Days 4 (Base 50)    
Moisture  
Dew Point 51 °F    
Average Humidity 93    
Maximum Humidity 100    
Minimum Humidity 75    
Precipitation  
Precipitation 1.11 in 0.36 in 2.56 in (1937)
Month to date precipitation 6.07 6.41  
Year to date precipitation 40.96 49.96  
Sea Level Pressure  
Sea Level Pressure 29.73 in    
Wind  
Wind Speed 13 mph (South)    
Max Wind Speed 23 mph    
Max Gust Speed 35 mph    
Visibility 9 miles    
Events      
T = Trace of Precipitation, MM = Missing Value Source: NWS Daily Summary

Daily Weather History Graph

Daily Weather History Graph

Search for Another Location

Airport:

Trip Planner

Search our weather history database for the weather conditions in past years. The results will help you decide how hot, cold, wet, or windy it might be!

Date:

Astronomy

Nov. 20, 2012 Rise Set
Actual Time 7:17 AM PST 4:47 PM PST
Civil Twilight 6:46 AM PST 5:18 PM PST
Nautical Twilight 6:11 AM PST 5:53 PM PST
Astronomical Twilight 5:37 AM PST 6:27 PM PST
Moon 12:48 PM PST (11/20) No Moon Set
Length of Visible Light 10h 32m
Length of Day
9h 30m
First Quarter, 52% of the Moon is Illuminated
Nov 20
First Quarter
Nov 28
Full
Dec 6
Last Quarter
Dec 13
New
Dec 19
First Quarter

Hourly Weather History & Observations

Time (PST) Temp. Dew Point Humidity Pressure Visibility Wind Dir Wind Speed Gust Speed Precip Events Conditions
12:15 AM 53.6 °F 51.8 °F 94% 29.79 in 9.0 mi SSW 10.4 mph - 0.04 in   Unknown
12:35 AM 53.6 °F 51.8 °F 94% 29.77 in 10.0 mi South 8.1 mph - 0.08 in   Unknown
12:55 AM 53.6 °F 51.8 °F 94% 29.77 in 7.0 mi South 8.1 mph - 0.12 in   Unknown
1:15 AM 53.6 °F 51.8 °F 94% 29.76 in 9.0 mi SE 8.1 mph - 0.06 in   Unknown
1:35 AM 51.8 °F 51.8 °F 100% 29.75 in 9.0 mi SSE 8.1 mph - 0.11 in   Unknown
1:55 AM 51.8 °F 51.8 °F 100% 29.75 in 9.0 mi SSE 10.4 mph - 0.20 in   Unknown
2:15 AM 51.8 °F 51.8 °F 100% 29.74 in 7.0 mi SE 10.4 mph - 0.10 in   Unknown
2:35 AM 51.8 °F 51.8 °F 100% 29.73 in 10.0 mi SSE 9.2 mph - 0.17 in   Unknown
2:55 AM 51.8 °F 50.0 °F 94% 29.71 in 6.0 mi SSE 3.5 mph - 0.23 in   Unknown
3:15 AM 51.8 °F 50.0 °F 94% 29.75 in 8.0 mi South 10.4 mph - 0.06 in   Unknown
3:35 AM 51.8 °F 50.0 °F 94% 29.71 in 10.0 mi SSE 10.4 mph - 0.12 in   Unknown
3:55 AM 51.8 °F 50.0 °F 94% 29.70 in 9.0 mi SE 10.4 mph - 0.13 in   Unknown
4:15 AM 51.8 °F 50.0 °F 94% 29.71 in 8.0 mi SSE 6.9 mph - 0.02 in   Unknown
4:35 AM 51.8 °F 50.0 °F 94% 29.70 in 10.0 mi SSE 6.9 mph - 0.04 in   Unknown
4:55 AM 51.8 °F 51.8 °F 100% 29.70 in 10.0 mi SSE 5.8 mph - 0.05 in   Unknown
5:15 AM 51.8 °F 51.8 °F 100% 29.68 in 10.0 mi SSE 6.9 mph - N/A   Unknown
5:35 AM 53.6 °F 53.6 °F 100% 29.68 in 10.0 mi South 10.4 mph - N/A   Unknown
5:55 AM 53.6 °F 51.8 °F 94% 29.66 in 9.0 mi SSE 9.2 mph - N/A   Unknown
6:15 AM 53.6 °F 51.8 °F 94% 29.66 in 10.0 mi SSE 10.4 mph - N/A   Unknown
6:35 AM 53.6 °F 53.6 °F 100% 29.66 in 10.0 mi South 11.5 mph - N/A   Unknown
6:55 AM 55.4 °F 53.6 °F 94% 29.66 in 10.0 mi South 11.5 mph 21.9 mph N/A   Unknown
7:15 AM 55.4 °F 53.6 °F 94% 29.66 in 10.0 mi South 12.7 mph 21.9 mph N/A   Unknown
7:35 AM 55.4 °F 53.6 °F 94% 29.66 in 10.0 mi South 18.4 mph 26.5 mph N/A   Unknown
7:55 AM 55.4 °F 53.6 °F 94% 29.67 in 8.0 mi South 19.6 mph 32.2 mph N/A   Unknown
8:15 AM 55.4 °F 53.6 °F 94% 29.68 in 10.0 mi South 21.9 mph 31.1 mph N/A   Unknown
8:35 AM 55.4 °F 53.6 °F 94% 29.68 in 8.0 mi South 17.3 mph 28.8 mph N/A   Unknown
8:55 AM 57.2 °F 53.6 °F 88% 29.70 in 8.0 mi SW 23.0 mph 31.1 mph N/A   Unknown
9:15 AM 57.2 °F 53.6 °F 88% 29.71 in 10.0 mi SSW 18.4 mph 29.9 mph 0.01 in   Overcast
9:35 AM 57.2 °F 53.6 °F 88% 29.72 in 10.0 mi SSW 18.4 mph 31.1 mph 0.01 in   Overcast
9:55 AM 57.2 °F 53.6 °F 88% 29.73 in 10.0 mi SSW 20.7 mph 34.5 mph 0.01 in   Overcast
10:15 AM 57.2 °F 53.6 °F 88% 29.73 in 9.0 mi SSW 19.6 mph 35.7 mph 0.01 in   Unknown
10:35 AM 55.4 °F 53.6 °F 94% 29.74 in 10.0 mi SSW 21.9 mph 28.8 mph 0.01 in   Unknown
10:55 AM 55.4 °F 51.8 °F 88% 29.75 in 9.0 mi SSW 15.0 mph 26.5 mph 0.01 in   Unknown
11:15 AM 55.4 °F 53.6 °F 94% 29.75 in 8.0 mi SSW 12.7 mph 23.0 mph 0.01 in   Mostly Cloudy
11:35 AM 55.4 °F 51.8 °F 88% 29.75 in 9.0 mi SSW 15.0 mph 20.7 mph 0.01 in   Mostly Cloudy
11:55 AM 55.4 °F 53.6 °F 94% 29.75 in 9.0 mi SSW 17.3 mph 27.6 mph 0.01 in   Overcast
12:15 PM 57.2 °F 53.6 °F 88% 29.76 in 10.0 mi SSW 12.7 mph 26.5 mph N/A   Overcast
12:35 PM 57.2 °F 53.6 °F 88% 29.75 in 10.0 mi SSW 13.8 mph 23.0 mph N/A   Overcast
12:55 PM 57.2 °F 53.6 °F 88% 29.76 in 10.0 mi SSW 11.5 mph 23.0 mph N/A   Overcast
1:15 PM 59.0 °F 51.8 °F 77% 29.75 in 10.0 mi SSW 21.9 mph 28.8 mph N/A   Mostly Cloudy
1:35 PM 59.0 °F 53.6 °F 82% 29.76 in 10.0 mi SSW 20.7 mph 26.5 mph N/A   Mostly Cloudy
1:55 PM 59.0 °F 51.8 °F 77% 29.77 in 10.0 mi SSW 15.0 mph 28.8 mph N/A   Mostly Cloudy
2:15 PM 59.0 °F 51.8 °F 77% 29.76 in 10.0 mi South 18.4 mph 27.6 mph N/A   Mostly Cloudy
2:35 PM 57.2 °F 51.8 °F 82% 29.76 in 10.0 mi SSW 18.4 mph 33.4 mph N/A   Mostly Cloudy
2:55 PM 51.8 °F 46.4 °F 82% 29.77 in 10.0 mi West 18.4 mph 24.2 mph N/A   Mostly Cloudy
3:15 PM 51.8 °F 46.4 °F 82% 29.77 in 10.0 mi SW 8.1 mph - N/A   Unknown
3:35 PM 53.6 °F 50.0 °F 88% 29.77 in 9.0 mi South 15.0 mph - 0.01 in   Unknown
3:55 PM 53.6 °F 50.0 °F 88% 29.78 in 8.0 mi SW 13.8 mph 23.0 mph 0.03 in   Unknown
4:15 PM 51.8 °F 48.2 °F 88% 29.78 in 8.0 mi South 11.5 mph 16.1 mph 0.03 in   Overcast
4:35 PM 50.0 °F 48.2 °F 94% 29.78 in 10.0 mi South 9.2 mph - 0.03 in   Mostly Cloudy
4:55 PM 50.0 °F 48.2 °F 94% 29.77 in 10.0 mi SSE 11.5 mph - 0.03 in   Mostly Cloudy
5:15 PM 50.0 °F 48.2 °F 94% 29.76 in 10.0 mi SSE 9.2 mph - N/A   Mostly Cloudy
5:35 PM 50.0 °F 48.2 °F 94% 29.76 in 10.0 mi SSE 8.1 mph - N/A   Mostly Cloudy
5:55 PM 50.0 °F 48.2 °F 94% 29.76 in 10.0 mi SSE 6.9 mph - N/A   Mostly Cloudy
6:15 PM 50.0 °F 48.2 °F 94% 29.75 in 10.0 mi SSE 11.5 mph - N/A   Mostly Cloudy
6:35 PM 50.0 °F 48.2 °F 94% 29.75 in 10.0 mi SSE 9.2 mph - 0.01 in   Mostly Cloudy
6:55 PM 50.0 °F 48.2 °F 94% 29.72 in 10.0 mi SE 11.5 mph - 0.01 in   Mostly Cloudy
7:15 PM 50.0 °F 48.2 °F 94% 29.72 in 10.0 mi SSE 6.9 mph - N/A   Partly Cloudy
7:35 PM 48.2 °F 48.2 °F 100% 29.72 in 10.0 mi SE 5.8 mph - N/A   Unknown
7:55 PM 50.0 °F 48.2 °F 94% 29.71 in 10.0 mi SSE 6.9 mph - N/A   Unknown
8:15 PM 48.2 °F 48.2 °F 100% 29.71 in 10.0 mi SSE 6.9 mph - N/A   Unknown
8:35 PM 48.2 °F 48.2 °F 100% 29.71 in 10.0 mi SE 8.1 mph - N/A   Unknown
8:55 PM 48.2 °F 48.2 °F 100% 29.70 in 10.0 mi SSE 8.1 mph - N/A   Unknown
9:15 PM 50.0 °F 48.2 °F 94% 29.70 in 10.0 mi SSE 9.2 mph - N/A   Unknown
9:35 PM 50.0 °F 48.2 °F 94% 29.70 in 10.0 mi SSE 9.2 mph - N/A   Unknown
9:55 PM 51.8 °F 48.2 °F 88% 29.68 in 9.0 mi South 18.4 mph 25.3 mph 0.02 in   Unknown
10:15 PM 51.8 °F 50.0 °F 94% 29.70 in 10.0 mi SSW 17.3 mph 32.2 mph 0.04 in   Unknown
10:35 PM 48.2 °F 46.4 °F 93% 29.71 in 6.0 mi WSW 23.0 mph 26.5 mph 0.15 in   Unknown
10:55 PM 48.2 °F 48.2 °F 100% 29.71 in 7.0 mi WSW 16.1 mph 31.1 mph 0.21 in   Unknown
11:15 PM 48.2 °F 46.4 °F 93% 29.72 in 9.0 mi SW 13.8 mph 20.7 mph 0.03 in   Unknown
11:35 PM 48.2 °F 48.2 °F 100% 29.72 in 10.0 mi SSW 6.9 mph 16.1 mph 0.05 in   Unknown
11:55 PM 51.8 °F 48.2 °F 88% 29.72 in 10.0 mi WSW 19.6 mph 25.3 mph 0.05 in   Unknown